GFSNE_700_spd_069.txt.gz
Wind_Speed
28 23 20 25 26 33 39 40 37 39 37 37 39 33 34 37 39 42 44 47 48 49 49 48 47 43 44 43 40 42 39 38 35 33 34 34 35 37
22 22 30 33 32 34 37 37 37 39 46 41 32 30 30 32 37 41 43 44 46 46 47 47 44 44 46 44 37 36 37 35 33 33 32 33 35 37
33 31 30 37 35 31 34 35 38 39 39 36 34 32 35 36 36 40 41 43 43 44 47 45 43 46 47 49 39 36 35 35 32 32 31 33 35 33
24 35 34 38 33 32 35 37 34 33 35 38 38 36 38 40 42 42 40 42 45 41 48 42 43 48 48 48 41 40 38 33 31 31 30 33 33 30
37 33 35 33 32 34 33 34 32 33 34 38 43 42 42 41 42 43 46 42 44 45 48 42 48 46 47 43 45 43 43 33 30 28 28 30 32 29
33 32 30 32 33 32 32 32 33 35 37 41 45 46 46 45 46 48 49 46 43 48 49 48 46 45 44 44 42 42 36 31 29 28 28 30 28 29
27 29 32 31 30 31 33 35 37 40 41 44 47 48 50 49 47 46 48 50 47 44 45 42 41 42 41 41 39 39 37 33 29 28 28 30 30 28
28 29 28 29 31 33 37 38 39 42 45 48 51 54 55 55 50 46 49 50 49 45 38 35 36 37 36 37 37 36 34 30 28 27 28 29 28 25
27 28 29 30 34 37 38 39 40 41 44 49 52 53 56 56 53 49 50 50 48 41 36 33 33 34 34 35 33 33 29 26 26 27 28 28 25 21
27 29 32 33 36 39 42 43 44 45 47 49 52 54 55 55 54 50 50 51 46 41 34 33 31 32 32 31 30 29 24 21 24 24 26 25 20 17
30 31 34 37 39 40 44 46 48 47 49 51 52 53 52 51 49 49 49 47 43 34 30 32 29 33 32 28 26 22 21 21 22 24 24 21 18 16
32 33 35 38 40 42 46 48 49 50 50 50 50 50 49 46 44 42 42 44 39 37 26 31 30 31 31 25 22 20 20 21 22 22 22 20 16 15
34 35 36 39 41 44 45 47 49 50 50 50 49 48 47 44 39 36 34 38 37 34 32 28 27 27 28 25 22 18 20 20 21 21 20 17 15 15
36 37 40 42 43 44 45 46 48 48 48 48 47 46 44 39 35 32 27 30 28 27 25 33 24 26 25 23 21 18 18 19 20 18 18 15 13 13
39 41 43 44 44 44 45 46 47 46 46 45 43 41 35 30 30 28 26 27 28 26 27 22 22 23 24 23 20 17 17 16 18 18 16 15 14 15
40 42 44 44 44 44 45 44 44 43 42 42 40 37 27 26 23 19 19 20 17 27 19 19 20 22 22 21 20 16 18 17 15 17 17 17 16 15
41 43 44 44 44 44 44 44 42 39 37 36 34 30 24 23 20 17 19 17 26 18 16 18 18 20 21 20 17 16 17 16 16 16 17 17 16 16
42 44 44 44 45 45 45 44 42 38 35 30 22 23 21 19 17 20 10 20 15 14 14 13 16 20 21 17 15 15 14 14 13 13 15 16 13 16
43 43 43 44 45 45 45 43 40 37 34 31 27 25 20 23 11 15 14 16 17 17 15 15 18 19 20 15 11 14 12 12 14 13 14 14 16 17
42 42 43 44 44 44 43 41 37 35 32 30 27 31 23 19 21 13 17 18 18 16 16 17 17 18 19 14 12 10 14 13 14 14 14 14 15 15
41 42 43 44 44 43 41 39 36 34 32 30 27 26 30 23 22 22 18 19 18 17 17 16 16 20 17 13 12 10 12 13 13 14 13 12 13 13
43 44 44 44 43 41 39 37 35 33 31 29 28 25 24 24 24 21 17 16 18 17 16 16 20 19 14 12 11 12 11 11 12 13 13 11 10 11
43 43 43 42 41 40 38 36 34 32 30 29 27 24 24 25 22 23 21 19 18 18 14 19 19 17 13 11 12 12 11 11 10 11 10 10 9 10

GFSNE_700_spd_072.txt.gz
Wind_Speed
31 31 31 23 24 26 29 30 37 41 42 32 34 34 39 39 38 39 41 43 45 47 48 49 48 49 48 46 44 46 45 44 42 41 38 37 36 35
31 33 31 29 25 30 33 35 36 38 40 32 34 35 33 35 36 39 41 43 45 46 47 46 45 47 44 45 42 46 45 45 37 37 37 37 36 34
30 30 29 31 27 35 37 37 33 33 40 40 39 36 36 36 36 38 40 43 45 45 46 46 46 50 45 49 44 46 45 43 38 39 36 36 35 33
31 28 28 29 36 32 37 39 36 37 41 43 39 38 38 38 40 41 42 45 46 45 43 42 42 46 48 42 52 49 45 41 39 40 38 34 34 33
31 26 34 33 34 39 37 36 38 38 37 41 43 42 41 39 41 43 44 46 46 45 45 47 48 47 45 46 47 43 44 38 38 40 37 34 32 31
29 36 31 35 38 34 36 38 36 37 37 40 43 44 44 43 45 48 50 48 49 48 47 45 44 43 41 43 39 41 41 38 38 36 35 35 32 31
30 34 39 36 32 36 34 33 35 37 39 41 43 46 47 47 48 50 53 53 53 50 47 45 45 45 45 35 37 40 39 39 37 37 36 33 31 30
38 32 29 31 31 33 34 35 37 39 41 44 46 48 50 52 54 56 59 59 58 54 47 44 46 45 37 29 34 34 36 36 35 34 32 30 29 29
27 27 30 32 32 33 33 35 37 39 42 45 49 49 51 52 55 56 58 58 56 56 49 48 48 42 38 29 30 33 32 33 32 30 30 28 27 27
28 29 31 32 34 35 36 37 38 39 42 44 47 49 51 52 54 56 56 55 53 48 44 42 40 36 30 27 29 29 28 30 29 28 28 26 25 26
29 32 32 33 35 36 39 41 42 43 44 46 48 49 50 51 52 54 53 51 50 44 41 42 35 30 24 24 26 25 27 29 28 28 27 24 24 23
31 32 34 35 36 38 41 44 46 47 48 49 48 48 48 48 49 49 48 45 41 40 35 33 29 33 28 25 24 24 27 28 28 27 25 23 23 23
33 33 35 37 38 41 43 46 48 50 50 51 51 50 49 48 47 46 43 38 34 34 30 26 29 25 28 25 22 23 27 27 27 25 24 23 22 21
33 34 36 38 40 42 44 46 48 49 50 50 50 49 48 45 43 42 37 34 33 30 24 24 24 27 24 22 24 24 26 25 25 23 22 21 20 18
34 36 38 39 41 42 45 47 48 48 49 49 48 47 45 43 39 35 30 30 28 24 24 20 23 26 21 22 25 25 24 20 21 21 20 19 18 19
37 38 40 41 42 44 45 46 47 48 48 47 46 45 42 40 35 28 27 24 23 16 23 22 28 21 19 23 24 22 19 19 18 20 19 18 19 19
38 39 41 42 43 44 45 45 45 46 46 45 43 41 38 35 31 25 23 21 21 19 17 18 15 15 19 21 20 18 17 18 18 18 19 17 17 22
41 41 42 44 45 45 45 45 45 45 45 44 42 39 35 31 27 21 22 22 21 16 12 12 13 18 19 18 17 17 18 17 17 18 18 17 14 21
41 42 44 45 46 46 46 45 45 45 45 44 41 38 35 29 27 23 23 11 15 13 14 14 17 16 16 16 15 19 15 16 16 16 15 13 12 15
41 43 45 46 46 46 46 46 46 44 43 42 39 36 33 29 26 25 20 18 9 15 15 15 17 15 16 17 16 16 16 15 14 13 13 13 15 15
43 45 46 46 46 46 46 45 45 43 41 39 37 35 32 29 26 26 24 25 22 20 18 15 15 16 17 18 15 13 16 15 13 14 14 12 14 15
45 45 46 46 47 46 45 44 43 41 38 37 35 33 32 29 26 25 26 25 23 21 18 16 17 17 17 20 14 14 14 14 13 13 13 11 11 11
47 47 47 46 46 46 44 42 41 38 36 35 33 31 29 26 25 24 24 23 23 22 19 16 16 17 20 18 14 13 12 12 12 13 13 11 11 11

GFSNE_700_spd_075.txt.gz
Wind_Speed
30 29 33 31 39 36 34 31 33 41 41 38 36 33 35 37 39 42 42 42 43 44 45 46 48 49 50 50 50 51 49 45 45 44 48 43 45 44
37 30 34 34 39 36 35 32 31 38 44 41 35 31 33 37 38 40 42 44 45 46 47 48 48 49 49 48 48 46 45 48 40 47 47 43 44 43
37 36 36 38 37 38 36 35 37 42 41 43 37 34 38 37 37 40 41 44 45 46 47 48 49 49 48 45 44 43 45 45 42 43 44 42 44 41
39 38 37 41 42 36 36 41 49 39 44 43 40 40 38 37 39 42 42 44 46 47 48 49 50 48 45 45 47 52 51 49 41 41 41 42 43 40
36 34 39 44 40 32 40 42 41 44 42 42 43 39 40 39 42 42 43 45 46 48 49 50 52 51 50 44 46 47 45 42 40 38 39 41 41 40
35 44 41 42 39 42 45 39 47 43 41 41 41 42 42 42 44 46 48 47 49 48 50 52 53 53 47 44 45 42 39 48 34 37 40 39 39 36
36 43 43 42 42 44 43 45 39 41 40 40 41 43 44 45 46 47 50 51 52 51 52 53 51 49 48 43 43 44 44 42 33 36 35 35 35 35
43 45 40 39 39 48 39 39 39 39 40 42 42 44 45 45 48 50 52 53 56 54 54 55 54 52 47 38 35 36 39 33 31 31 32 32 33 33
36 39 40 43 46 40 38 38 39 40 41 42 44 44 47 48 49 51 53 54 56 55 57 57 54 50 43 33 35 37 37 32 29 31 30 31 33 31
37 39 44 41 39 38 39 39 39 40 42 43 46 46 48 49 50 52 54 55 55 54 56 58 50 47 37 28 31 32 32 25 29 28 28 30 31 28
38 41 40 38 38 39 39 39 39 41 42 43 45 46 47 47 49 51 52 55 55 52 52 52 44 39 32 31 25 26 22 27 27 26 28 30 30 27
37 38 38 38 39 40 40 40 42 42 43 44 45 45 46 46 47 49 51 52 53 52 44 43 37 31 26 23 23 25 22 25 25 27 27 29 27 26
36 38 38 38 39 39 40 42 44 45 46 47 47 47 46 46 46 48 49 50 50 48 38 37 35 26 17 20 23 22 24 25 28 26 27 28 26 24
38 38 38 39 39 41 43 43 45 46 47 48 48 47 47 47 47 48 47 45 44 40 32 33 32 25 18 21 26 32 24 26 25 26 28 27 23 22
35 36 38 39 41 42 44 44 45 46 47 47 46 47 47 47 47 47 45 42 38 32 28 28 26 19 20 23 25 23 23 23 25 26 26 23 21 21
37 43 45 43 43 43 44 46 45 45 45 46 46 46 47 47 46 45 43 39 35 28 23 26 20 21 22 25 28 24 19 22 24 25 23 19 19 19
47 46 44 44 46 47 46 45 44 44 45 46 46 47 47 47 45 42 39 34 31 26 23 23 19 23 21 22 19 19 21 22 22 22 20 18 18 19
46 46 47 48 49 48 46 44 45 46 46 46 47 47 47 46 44 39 35 32 28 22 19 17 20 17 18 18 17 17 20 21 20 20 18 18 16 18
49 48 50 50 48 47 46 46 46 45 46 46 47 48 47 44 42 38 32 29 23 21 15 14 15 16 18 18 16 17 20 18 19 17 17 16 15 17
49 49 49 48 47 47 47 46 46 46 47 48 49 47 45 43 40 35 30 27 25 21 21 20 19 19 19 16 18 15 18 17 18 16 16 16 16 15
48 49 50 49 49 48 48 48 48 47 48 48 46 45 43 40 36 32 29 26 26 27 21 19 15 17 20 20 17 14 18 18 16 15 15 15 15 14
51 51 50 49 49 50 50 49 47 46 45 45 44 42 39 36 33 30 27 26 25 27 27 22 17 19 19 18 14 16 18 17 16 15 14 13 12 12
50 50 50 50 50 49 48 47 44 43 43 43 41 37 34 32 29 27 25 24 23 27 26 24 22 18 18 17 16 17 17 17 15 14 13 12 11 11

GFSNE_700_spd_078.txt.gz
Wind_Speed
37 35 28 28 32 35 36 35 40 43 40 33 33 33 35 37 40 38 37 40 42 42 42 42 44 45 47 47 48 49 50 50 49 47 44 43 44 44
36 34 34 35 35 35 41 38 43 43 43 39 33 37 33 36 35 37 40 40 40 41 42 44 45 47 47 49 50 50 47 47 47 46 51 47 46 44
29 27 36 34 40 36 41 37 46 45 43 38 42 43 34 33 33 38 38 40 41 43 44 46 47 48 49 51 52 52 53 46 51 48 46 46 49 40
37 37 36 37 37 42 43 44 46 43 36 44 49 41 42 37 39 38 39 41 43 44 45 46 48 49 51 51 52 53 53 51 51 48 47 45 43 38
39 39 37 37 38 45 41 45 46 37 43 50 42 47 47 40 39 41 43 43 44 45 46 47 48 50 51 52 53 53 52 51 46 51 49 46 43 36
36 37 38 46 46 42 47 48 45 47 45 46 49 48 43 41 43 44 45 45 47 45 46 47 48 49 50 50 50 51 50 46 46 43 42 39 45 36
38 38 43 40 45 47 45 46 46 43 45 52 44 44 44 44 45 47 50 51 51 49 48 49 46 47 48 49 51 49 42 38 41 40 39 38 35 33
40 43 44 47 41 44 52 48 42 46 52 47 44 45 45 45 47 48 50 52 54 50 51 50 49 51 49 50 52 48 40 36 37 36 30 31 32 32
39 39 42 46 50 49 43 50 48 53 48 46 46 46 46 45 48 50 50 51 52 51 52 53 50 52 52 53 50 44 37 33 33 33 30 31 30 30
39 42 49 48 47 45 49 50 52 48 46 47 47 46 47 47 48 51 51 52 51 50 50 53 50 52 52 50 44 39 32 30 27 29 34 28 27 28
43 45 44 45 46 48 50 51 47 46 46 47 46 46 47 47 48 49 48 49 49 49 48 52 51 53 49 45 39 32 30 29 27 29 26 24 26 25
42 43 44 47 47 47 47 46 46 46 46 45 46 47 46 45 44 45 45 46 47 50 48 50 50 47 45 39 30 24 23 23 25 22 23 22 23 23
43 45 46 46 46 46 44 46 45 46 50 50 47 43 45 48 42 41 42 45 46 46 43 47 45 41 38 36 27 19 17 21 19 22 23 22 24 24
44 44 45 46 47 47 47 48 54 48 49 48 50 53 50 43 40 41 42 43 44 45 42 42 41 35 32 32 23 17 15 20 23 24 22 23 23 21
44 46 47 48 50 52 56 54 51 53 58 55 52 49 44 42 41 41 42 43 43 42 42 38 35 30 30 32 21 18 17 20 22 21 22 23 20 18
48 50 52 53 53 52 53 56 57 55 51 50 48 45 43 42 41 41 43 44 43 39 39 35 30 27 26 23 18 20 20 26 21 22 24 20 18 18
48 48 48 49 50 52 54 54 52 50 50 49 46 43 43 42 40 41 43 43 42 43 38 31 26 27 25 21 25 21 21 20 19 22 21 20 18 18
44 44 46 48 51 52 51 51 52 50 48 46 45 44 42 41 40 41 42 42 41 41 35 27 22 23 21 21 24 19 19 19 20 21 20 19 16 18
45 47 49 50 49 50 50 50 49 47 47 46 44 42 42 41 42 41 41 41 41 38 31 23 22 23 21 21 20 18 17 16 18 20 19 17 15 16
46 47 48 49 49 49 49 49 48 47 45 44 43 43 43 42 41 41 41 41 39 33 28 23 25 21 19 20 18 20 18 16 17 18 17 16 14 14
47 49 50 51 51 51 51 50 48 46 45 44 43 42 41 41 40 41 40 37 34 30 27 25 25 23 24 23 24 22 19 16 16 15 15 14 14 14
52 53 53 53 53 52 50 49 48 45 44 43 42 41 40 40 39 38 35 33 29 27 26 23 27 26 27 26 21 19 17 15 16 14 14 13 13 13
54 54 53 52 51 50 49 48 46 43 41 40 38 38 37 35 34 33 31 29 26 24 24 22 28 22 26 25 18 18 17 15 15 14 14 14 13 13

GFSNE_700_spd_081.txt.gz
Wind_Speed
42 43 41 40 40 36 34 38 35 38 33 34 33 36 35 34 30 37 35 40 39 36 38 38 37 39 40 42 44 44 44 45 46 47 46 41 46 47
46 48 43 38 35 41 38 37 24 37 40 38 38 36 38 28 35 42 38 38 37 40 40 39 40 40 41 43 44 45 46 47 48 45 45 46 48 53
54 55 53 38 32 37 39 31 34 37 40 38 42 39 34 35 42 38 41 42 41 39 39 40 42 43 44 45 46 47 48 50 51 51 50 47 48 52
48 39 39 36 39 49 36 30 36 38 42 41 41 41 37 43 45 39 43 42 40 40 41 42 43 44 46 47 47 48 49 51 53 54 54 49 48 52
32 31 30 33 42 45 30 37 44 47 46 43 50 41 45 44 44 45 40 40 41 42 41 43 43 45 46 46 47 48 50 51 53 54 55 54 52 46
35 38 40 40 43 34 37 43 48 41 50 49 49 51 48 44 47 46 43 43 43 41 42 43 44 45 44 45 47 49 50 51 52 54 53 50 42 44
37 38 38 40 38 39 40 43 47 44 42 49 53 50 45 49 53 48 47 46 45 44 45 45 44 46 47 47 45 47 49 51 53 53 48 44 44 43
40 39 41 37 36 44 47 43 40 40 46 51 47 46 52 52 50 47 48 49 50 51 51 52 51 49 45 45 45 47 50 51 50 45 43 38 40 36
40 41 38 42 44 43 45 44 47 53 55 49 50 57 54 49 48 48 48 49 53 54 58 58 49 45 43 44 45 49 50 48 45 40 37 36 36 33
40 41 38 36 42 46 42 48 57 53 51 54 55 53 48 47 48 47 49 57 59 58 53 55 45 44 44 46 47 48 47 45 40 34 32 31 25 28
37 43 44 45 44 47 52 54 49 53 55 57 54 49 48 48 47 53 59 60 58 54 47 47 43 44 45 47 47 43 43 42 35 29 27 26 27 29
41 43 45 47 51 51 48 51 55 53 51 49 48 47 49 50 56 60 57 56 56 56 45 42 41 44 50 47 45 41 37 34 30 28 26 25 25 23
43 45 48 49 49 51 53 54 52 52 50 50 51 52 55 60 62 56 57 57 52 47 40 41 41 41 45 48 43 39 31 27 24 20 21 21 21 22
45 46 48 51 53 54 54 54 54 53 54 55 59 59 58 58 58 55 51 49 45 42 38 39 42 42 43 45 41 33 26 21 21 18 21 21 20 21
47 49 51 53 55 56 56 55 55 55 53 52 53 55 53 51 49 48 45 43 42 39 36 38 41 40 43 42 34 28 26 23 21 19 15 16 18 19
47 49 49 49 50 51 50 49 49 49 50 51 52 51 49 49 48 47 46 43 42 37 35 37 39 40 40 36 30 26 25 22 22 19 16 20 18 19
44 46 48 49 49 48 48 48 49 51 51 51 50 50 49 49 48 46 45 44 41 38 36 36 37 38 36 30 28 29 26 23 20 18 19 19 18 18
46 47 47 45 45 47 48 49 50 50 51 51 51 50 50 49 47 44 42 41 40 38 37 36 37 37 31 28 30 29 24 27 21 17 18 17 17 19
41 42 43 44 45 47 49 51 51 51 51 51 50 49 47 46 45 43 41 41 39 38 37 37 37 32 29 28 25 23 25 23 21 18 16 16 16 17
40 42 45 47 49 50 51 52 53 52 51 50 49 48 46 44 42 41 40 39 38 37 36 35 31 28 28 27 26 23 22 21 16 15 15 16 14 15
47 49 52 53 54 55 55 55 54 53 51 49 47 45 43 42 40 38 38 37 36 36 34 31 27 27 27 26 27 21 23 19 17 15 16 17 14 14
51 52 53 54 55 55 55 54 52 50 48 46 44 41 39 38 37 36 35 34 33 32 30 28 24 23 24 26 26 21 21 21 17 16 16 15 15 14
50 50 51 51 51 50 49 48 46 43 41 39 37 35 34 32 31 30 29 29 29 28 26 23 20 20 21 23 24 24 21 20 18 16 14 14 15 14

GFSNE_700_spd_087.txt.gz
Wind_Speed
30 31 33 35 36 39 40 41 42 47 49 45 45 42 36 41 40 32 36 35 33 37 38 35 36 40 44 43 44 43 43 44 43 43 44 45 45 45
34 35 37 37 39 40 41 46 51 48 52 52 48 46 40 39 40 35 36 37 34 37 40 38 39 47 43 42 44 43 43 44 45 45 46 47 47 46
37 39 40 39 42 44 48 53 48 41 44 45 52 44 36 34 33 40 41 37 37 45 41 36 44 47 43 44 44 44 44 45 46 47 47 47 49 48
39 41 42 43 43 44 40 32 37 34 34 38 33 33 37 36 43 43 42 40 42 43 39 42 44 42 44 48 48 47 47 46 47 47 53 53 53 52
43 45 46 45 48 44 44 40 39 36 41 40 37 44 43 35 41 41 46 44 42 44 48 53 45 46 48 48 48 48 46 47 48 54 59 55 55 52
46 46 48 46 44 42 40 39 42 41 39 39 37 42 40 37 41 46 44 42 44 51 50 58 52 52 49 47 47 46 46 49 58 58 54 50 48 49
46 46 47 49 43 44 45 41 43 43 41 34 40 43 38 42 45 48 48 49 51 48 59 57 56 56 49 46 48 46 48 57 55 52 48 46 47 49
42 43 44 45 47 47 43 45 42 36 40 45 39 42 40 49 46 48 51 47 52 58 60 59 52 55 52 50 50 53 54 51 47 47 45 45 46 47
42 43 44 46 47 42 46 42 41 39 40 44 41 37 42 45 45 50 49 55 57 58 57 60 55 54 50 50 52 54 48 45 42 43 43 45 46 49
45 46 45 44 45 45 42 47 47 44 41 37 38 46 52 48 45 51 58 62 61 58 52 57 53 57 56 54 53 50 47 42 39 40 42 44 46 48
47 46 39 39 43 47 42 39 36 39 39 42 45 44 49 56 60 58 55 57 57 55 53 55 57 59 57 54 50 47 45 41 39 41 43 43 44 46
42 37 36 37 38 38 41 44 44 41 43 47 50 52 53 54 54 55 55 56 56 59 52 56 56 56 57 53 48 45 44 43 41 40 42 42 42 40
34 33 35 36 38 39 40 44 46 49 49 50 51 53 55 57 57 57 55 54 54 54 52 53 55 53 51 52 48 45 45 43 43 37 36 38 37 31
34 34 37 42 43 44 44 45 46 48 51 53 55 55 56 57 56 56 54 53 54 54 53 52 54 52 52 52 49 44 45 45 42 35 32 31 29 24
39 41 38 40 43 43 44 46 49 52 53 54 55 54 54 54 54 54 55 55 56 56 55 54 54 53 53 53 51 47 46 42 37 30 29 25 28 25
37 37 37 39 41 44 47 50 51 52 51 50 51 52 53 55 57 59 61 61 61 60 57 54 54 53 52 51 50 46 43 40 34 28 26 23 23 23
35 37 38 41 45 48 49 48 47 48 51 53 55 57 58 60 60 60 61 60 60 58 56 52 48 47 47 47 46 41 38 36 31 26 23 22 27 23
35 39 43 44 43 43 45 47 50 53 55 56 57 58 59 59 59 58 57 55 54 53 50 47 44 44 44 42 38 36 33 33 32 28 25 25 23 22
39 40 39 40 43 45 48 50 51 52 54 54 55 55 55 55 54 52 50 47 45 43 41 40 39 38 37 35 34 29 34 33 26 24 24 24 22 22
35 38 41 43 44 46 47 48 48 49 49 50 49 49 47 46 44 43 40 38 37 37 36 34 31 24 27 36 35 28 24 27 26 28 19 23 21 21
38 39 41 41 43 44 44 44 44 44 44 43 42 40 38 37 35 34 33 32 32 32 31 30 29 29 29 29 30 27 23 25 27 28 16 26 22 20
36 38 39 40 40 40 40 40 39 39 38 37 35 33 33 32 32 31 30 30 29 29 28 27 26 25 25 25 26 24 17 21 27 25 15 24 19 15
35 36 37 37 36 36 36 35 35 34 33 32 31 31 31 30 30 29 28 28 27 27 26 25 24 23 23 23 22 16 11 18 22 18 13 22 18 13

GFSNE_700_spd_093.txt.gz
Wind_Speed
25 23 25 24 25 25 26 26 29 32 34 30 30 26 26 28 30 29 28 26 27 29 29 31 32 32 37 35 34 36 35 36 35 35 39 38 38 40
30 28 29 27 29 30 30 30 31 34 40 34 31 30 30 29 30 31 31 31 23 27 29 26 25 32 40 45 43 40 38 42 41 40 39 40 43 46
33 32 32 30 31 31 31 33 32 36 42 36 35 34 36 34 35 34 30 32 32 32 34 34 34 32 34 48 48 45 47 49 48 48 44 44 47 51
36 36 32 33 33 33 34 36 36 39 43 42 41 40 37 34 37 36 34 34 36 34 36 39 41 36 39 47 43 45 48 48 54 60 53 50 51 54
39 38 37 36 37 36 38 40 39 39 42 43 42 42 41 36 42 39 37 43 37 42 41 43 41 40 44 44 49 48 46 50 54 65 61 57 56 57
36 37 38 40 40 41 41 39 40 39 38 38 40 41 41 40 45 40 36 40 46 44 41 46 43 46 47 48 53 55 50 57 61 60 59 59 57 57
34 37 41 41 41 41 41 42 39 36 34 35 40 46 49 43 45 52 41 46 52 49 45 48 45 46 51 52 56 55 56 55 56 60 62 58 55 56
35 39 38 40 40 40 39 39 38 33 44 40 46 49 50 52 47 53 49 48 44 43 42 44 47 47 53 53 54 55 58 61 60 59 59 58 55 55
41 41 42 43 43 43 43 45 46 44 43 48 50 48 54 50 52 39 35 38 40 38 42 48 48 51 54 57 60 60 60 60 61 60 57 55 54 50
40 42 45 47 50 50 52 45 44 46 47 49 47 46 47 38 36 36 35 36 43 47 52 54 57 59 59 60 59 58 58 57 55 54 54 53 53 53
40 41 41 46 49 41 47 51 44 47 43 44 46 43 35 34 41 43 44 45 48 49 52 57 59 60 58 56 54 54 54 54 54 54 54 54 51 49
46 44 42 42 45 46 49 45 54 50 44 47 35 31 35 40 41 44 45 47 50 52 52 53 54 57 62 61 60 58 58 56 57 57 56 54 51 49
45 49 48 54 55 48 53 51 42 42 37 35 35 37 37 40 43 45 46 47 49 51 53 55 58 59 60 65 66 65 63 61 57 54 52 50 49 49
47 48 54 58 56 42 44 42 35 33 30 33 36 38 39 41 42 45 47 49 51 53 55 55 58 59 61 63 65 63 62 61 58 53 48 44 44 44
54 56 51 39 36 34 33 26 28 33 35 37 38 37 40 43 45 47 49 50 50 50 51 51 53 55 56 57 60 60 59 57 54 49 42 38 36 32
44 40 30 28 18 21 27 31 32 35 37 38 39 41 42 43 46 48 49 49 50 50 48 48 49 49 48 46 47 48 46 47 48 44 41 34 29 29
14 14 15 19 25 27 30 33 35 36 37 38 40 42 44 46 47 48 48 48 48 47 45 41 39 39 39 40 40 40 41 40 39 39 37 34 25 25
17 21 23 26 29 32 34 35 37 37 38 39 41 43 43 44 44 44 44 42 40 38 37 36 37 37 35 31 31 36 34 36 35 34 33 35 29 25
21 24 27 29 31 31 31 32 34 36 39 40 41 41 41 41 40 38 37 35 34 34 33 34 35 36 36 35 29 29 34 31 31 29 29 27 26 19
26 28 28 28 28 30 31 32 34 35 36 37 37 37 37 36 35 34 33 32 31 31 30 31 31 32 33 35 34 28 30 32 29 25 21 19 18 9
23 25 26 27 29 30 31 31 32 33 34 34 35 34 34 32 31 30 30 30 30 30 30 29 29 30 31 32 32 28 24 23 23 21 14 10 6 12
24 25 26 27 28 28 30 31 32 32 32 32 32 30 29 28 27 27 28 30 29 29 28 27 27 27 28 30 29 26 19 14 15 13 7 4 12 12
23 23 24 25 27 28 29 30 30 30 29 29 28 27 26 25 25 27 25 24 24 25 26 25 24 24 24 25 23 20 16 11 6 2 6 14 17 29

GFSNE_700_spd_096.txt.gz
Wind_Speed
31 31 33 33 29 26 25 23 23 27 27 24 28 27 27 25 23 26 28 30 26 29 29 35 29 33 32 32 34 38 40 43 44 43 43 41 40 46
32 33 36 26 29 29 27 27 27 29 33 30 30 31 31 28 28 30 29 31 33 32 30 32 33 35 34 33 34 41 40 46 50 53 48 47 47 50
31 28 28 28 29 30 30 30 30 32 36 35 35 34 33 32 34 35 34 35 33 35 38 37 37 35 40 42 44 44 41 42 51 51 48 49 53 54
31 32 34 32 32 32 32 34 34 35 38 42 38 37 37 38 38 35 35 38 33 39 42 39 40 44 42 50 45 46 49 42 51 45 50 50 51 54
31 31 34 36 37 36 36 36 37 40 40 45 44 41 39 42 37 38 42 37 40 39 37 37 44 45 49 52 49 51 53 53 52 51 53 57 58 60
34 34 36 40 42 41 42 42 40 44 43 45 46 45 44 39 43 39 39 42 44 49 43 43 46 48 52 55 51 52 47 56 58 57 61 63 64 65
37 37 39 42 43 42 42 41 46 45 46 46 46 44 42 51 44 40 47 46 47 49 48 52 44 51 51 49 49 49 54 60 62 62 63 63 64 66
38 38 41 45 44 44 45 47 46 45 46 48 49 48 49 48 49 51 50 48 50 50 49 41 42 41 39 45 47 53 58 59 61 65 68 70 70 70
36 38 41 42 42 44 45 46 47 48 50 53 56 57 52 64 43 51 52 50 41 41 38 39 44 46 46 48 52 57 60 64 68 69 70 71 71 68
39 40 40 42 44 47 47 51 51 52 53 55 50 56 54 45 52 50 49 45 41 40 43 44 45 47 49 52 57 60 61 63 64 65 67 67 68 68
44 45 45 43 47 48 49 48 53 52 58 60 57 52 47 43 46 47 40 35 39 44 46 47 49 51 53 54 56 58 59 61 63 66 68 68 69 69
43 44 48 52 54 50 49 62 51 57 61 57 52 43 41 43 38 32 36 41 43 46 46 46 50 54 58 60 61 61 60 61 61 62 64 65 67 69
46 52 53 51 47 54 57 61 67 60 48 39 32 32 32 31 34 41 43 45 46 46 49 51 54 57 58 62 63 62 64 64 64 63 60 57 57 59
47 50 60 60 59 59 60 58 53 43 26 23 24 29 33 36 39 41 44 45 47 49 51 52 55 56 58 59 60 60 59 59 56 56 57 56 54 45
50 55 61 64 58 49 29 19 14 17 21 25 28 31 35 39 40 42 42 41 43 46 49 51 52 53 52 53 56 55 56 53 51 51 52 52 51 46
58 58 43 26 17 10 14 19 22 26 30 32 34 36 39 37 38 39 41 42 42 43 45 46 47 47 47 46 46 47 47 48 49 49 49 48 44 38
18 11 10 12 15 19 22 24 26 29 30 30 31 32 34 37 38 39 42 43 43 43 42 40 41 41 41 42 42 44 45 44 44 46 46 45 40 34
11 13 14 17 18 21 24 26 26 26 27 29 31 34 35 37 38 39 40 40 40 40 40 40 39 38 37 36 38 40 38 40 41 41 40 41 36 25
13 15 16 19 23 24 23 24 25 27 29 32 34 35 36 37 36 36 37 37 36 36 36 39 40 42 43 40 36 35 40 39 40 37 34 30 27 16
17 19 20 19 20 21 22 24 26 28 31 32 33 33 34 34 34 34 34 33 33 34 36 36 37 38 37 37 36 30 33 38 38 33 25 15 14 7
15 15 16 19 21 23 24 26 27 29 30 31 31 32 32 32 32 31 30 31 32 31 31 31 32 32 33 33 31 29 25 27 31 28 15 7 3 5
15 17 19 21 22 24 25 26 28 29 30 30 31 31 30 29 27 27 27 27 26 26 27 28 30 30 30 31 30 28 24 19 19 18 8 6 8 8
18 19 20 21 22 23 25 26 27 28 28 28 28 26 24 24 24 24 23 23 23 23 25 26 29 30 28 28 26 25 20 18 12 6 7 7 11 24

GFSNE_700_spd_102.txt.gz
Wind_Speed
51 49 46 35 29 27 37 37 32 35 32 36 32 20 21 24 23 26 25 25 26 26 31 32 34 35 36 39 39 38 40 40 39 42 41 39 40 44
38 42 38 34 33 36 33 40 41 33 28 24 26 25 28 25 27 28 28 30 31 34 35 35 37 38 40 42 40 43 41 43 47 46 47 46 45 48
32 48 38 37 37 36 37 36 29 32 34 26 32 31 31 32 32 33 34 35 36 38 39 40 40 41 41 42 45 46 44 43 46 47 49 52 54 57
24 39 39 33 32 30 29 32 33 34 36 29 32 29 33 35 36 37 38 39 41 44 45 45 44 44 43 46 44 42 49 53 53 52 51 55 56 54
24 27 33 33 32 29 29 31 33 36 40 37 38 37 36 37 39 40 41 43 45 48 49 48 47 48 47 50 50 53 54 51 53 54 55 56 60 64
31 32 32 33 29 33 36 34 33 36 43 41 42 41 42 42 44 46 46 48 49 53 54 48 52 50 58 54 51 51 52 53 54 60 63 66 64 63
34 35 36 32 31 34 40 34 38 37 39 42 47 43 45 48 49 50 50 52 54 55 55 58 56 57 52 56 56 54 55 55 55 54 54 53 53 56
33 33 31 33 37 32 35 37 38 41 46 45 47 49 46 50 52 53 55 54 57 56 56 58 57 59 59 58 55 54 51 52 52 49 52 57 59 61
36 38 38 38 38 40 44 43 45 47 50 48 47 52 55 56 55 55 54 57 55 61 54 56 57 57 59 55 52 48 47 45 50 55 58 60 63 65
37 40 43 44 46 47 48 50 53 53 52 52 53 56 58 58 58 58 54 64 58 60 56 58 57 55 48 41 40 43 48 52 54 57 59 62 64 66
37 40 42 43 45 46 49 51 52 54 57 56 55 53 56 58 58 59 59 61 65 57 54 48 41 38 39 43 45 47 50 54 56 57 59 61 63 65
44 46 47 48 49 49 49 49 50 54 55 58 54 55 58 61 58 62 67 52 49 43 36 34 37 40 43 44 46 48 48 51 53 55 57 59 60 62
47 49 49 51 51 51 50 52 52 53 56 60 58 62 62 56 47 47 35 30 30 32 35 38 40 42 43 46 47 47 51 52 53 53 53 54 55 56
51 53 57 52 49 51 52 56 55 58 64 58 52 49 33 28 26 26 27 29 32 34 35 37 38 40 42 45 47 49 49 50 52 54 54 55 54 54
54 55 57 58 53 56 68 69 65 49 34 27 22 19 17 20 23 26 29 30 31 32 34 35 37 39 42 45 48 48 52 50 50 51 51 51 50 50
44 47 48 51 55 46 36 26 20 18 16 16 16 20 21 23 23 23 25 28 30 32 34 36 37 38 39 40 42 45 47 50 50 49 48 44 43 45
35 33 22 18 12 11 12 13 14 14 14 17 19 20 21 22 23 25 27 29 30 32 33 34 35 35 35 38 39 43 44 43 41 40 40 41 38 36
2 4 5 7 8 9 10 11 14 16 17 18 19 19 21 23 25 25 26 27 28 29 30 30 30 31 31 30 36 41 38 39 37 34 32 34 20 22
6 4 5 7 9 11 14 15 17 16 16 17 18 20 22 23 24 25 25 26 26 27 28 30 31 32 32 31 27 32 37 36 35 22 18 18 18 15
5 7 9 12 15 14 13 13 14 16 18 19 20 20 21 22 23 23 23 24 25 26 27 26 28 30 32 35 37 28 29 33 25 11 14 12 14 16
10 13 14 13 12 13 15 16 17 18 18 19 20 21 22 22 22 22 22 23 22 21 22 24 25 28 30 32 32 23 17 23 18 15 11 10 12 16
12 11 10 11 13 14 15 17 17 18 19 20 20 21 21 21 22 21 21 20 19 18 19 21 22 23 27 32 29 22 15 12 15 11 8 9 13 14
10 11 12 14 15 16 17 18 19 20 20 21 21 21 21 21 21 20 18 18 17 18 18 18 19 22 26 30 26 18 14 12 5 6 8 8 11 10